CKJ7630 ZSNJ-ZLXY

Flight info

Callsign CKJ7630
Flight time 1h 41m
Altitude 32100
Route HFE DCT AVLOG W127 AKNAX V78 ISNEB V104 AVNOD DCT EPGOS W128 KAMDA W638 PASGU DCT URGIN DCT NUGSA DCT UPSIK DCT TAREX DCT NSH
Aircraft B738/M-SDE2E3FGHIRWXY/LB1

Departure

Time 2026-05-06 11:24
Airport Nanjing Lukou International Airport (ZSNJ)

Arrival

Time 2026-05-06 13:05
Airport Xi'an Xianyang International Airport (ZLXY)
Time Latitude Longitude Altitude Speed Heading
2026-05-06 11:09 31.73432 118.87921 52 ft 0 kts 58°
2026-05-06 11:16 31.73422 118.87902 50 ft 4 kts 58°
2026-05-06 11:16 31.73410 118.87878 49 ft 4 kts 78°
2026-05-06 11:16 31.73414 118.87853 53 ft 4 kts 139°
2026-05-06 11:17 31.73429 118.87841 49 ft 1 kts 148°
2026-05-06 11:17 31.73432 118.87839 49 ft 0 kts 148°
2026-05-06 11:19 31.73431 118.87840 49 ft 1 kts 148°
2026-05-06 11:19 31.73407 118.87857 49 ft 7 kts 148°
2026-05-06 11:19 31.73354 118.87896 54 ft 11 kts 148°
2026-05-06 11:20 31.73315 118.87909 53 ft 7 kts 190°
2026-05-06 11:20 31.73258 118.87885 53 ft 10 kts 179°
2026-05-06 11:20 31.73191 118.87931 52 ft 13 kts 142°
2026-05-06 11:20 31.73163 118.87953 55 ft 0 kts 148°
2026-05-06 11:22 31.73151 118.87962 54 ft 4 kts 148°
2026-05-06 11:22 31.73111 118.87992 53 ft 9 kts 148°
2026-05-06 11:22 31.73064 118.88023 55 ft 5 kts 172°
2026-05-06 11:22 31.73043 118.87982 52 ft 8 kts 248°
2026-05-06 11:23 31.73040 118.87974 53 ft 0 kts 242°
2026-05-06 11:23 31.73033 118.87960 56 ft 11 kts 240°
2026-05-06 11:23 31.72884 118.87678 54 ft 84 kts 238°
2026-05-06 11:23 31.72421 118.86814 132 ft 156 kts 239°
2026-05-06 11:24 31.71868 118.85663 1028 ft 165 kts 237°
2026-05-06 11:24 31.71202 118.84465 1876 ft 184 kts 235°
2026-05-06 11:24 31.70434 118.83081 2305 ft 219 kts 235°
2026-05-06 11:24 31.69560 118.81488 2740 ft 240 kts 236°
2026-05-06 11:25 31.68637 118.79790 3359 ft 258 kts 236°
2026-05-06 11:25 31.67702 118.77928 4127 ft 272 kts 247°
2026-05-06 11:25 31.67446 118.75722 5084 ft 277 kts 271°
2026-05-06 11:25 31.67463 118.73436 6011 ft 283 kts 270°
2026-05-06 11:26 31.67465 118.71095 6928 ft 290 kts 270°
2026-05-06 11:26 31.67453 118.68710 7832 ft 295 kts 270°
2026-05-06 11:26 31.67432 118.66275 8719 ft 301 kts 270°
2026-05-06 11:26 31.67405 118.63792 9593 ft 307 kts 270°
2026-05-06 11:27 31.67373 118.61261 10432 ft 314 kts 270°
2026-05-06 11:27 31.67333 118.58601 10794 ft 340 kts 269°
2026-05-06 11:27 31.67287 118.55715 11014 ft 367 kts 269°
2026-05-06 11:27 31.67238 118.52617 11220 ft 392 kts 269°
2026-05-06 11:28 31.67185 118.49326 11464 ft 413 kts 269°
2026-05-06 11:28 31.67131 118.45922 12012 ft 422 kts 269°
2026-05-06 11:28 31.67078 118.42467 12696 ft 427 kts 270°
2026-05-06 11:28 31.67023 118.38964 13387 ft 431 kts 270°
2026-05-06 11:29 31.66967 118.35427 14026 ft 437 kts 270°
2026-05-06 11:29 31.66910 118.31840 14614 ft 443 kts 270°
2026-05-06 11:29 31.66850 118.28202 15189 ft 448 kts 271°
2026-05-06 11:29 31.66789 118.24527 15784 ft 453 kts 272°
2026-05-06 11:30 31.66726 118.20809 16383 ft 457 kts 272°
2026-05-06 11:30 31.66658 118.17060 16972 ft 462 kts 272°
2026-05-06 11:30 31.66443 118.13275 17562 ft 468 kts 269°
2026-05-06 11:30 31.66081 118.09519 18144 ft 471 kts 268°
2026-05-06 11:31 31.65653 118.05639 18720 ft 475 kts 268°
2026-05-06 11:31 31.65226 118.01786 19272 ft 477 kts 269°
2026-05-06 11:31 31.64814 117.97915 19847 ft 479 kts 270°
2026-05-06 11:31 31.64424 117.94086 20429 ft 479 kts 271°
2026-05-06 11:32 31.64041 117.90198 21012 ft 479 kts 272°
2026-05-06 11:32 31.63664 117.86316 21585 ft 479 kts 272°
2026-05-06 11:32 31.63287 117.82419 22070 ft 481 kts 272°
2026-05-06 11:32 31.62908 117.78504 22456 ft 485 kts 272°
2026-05-06 11:33 31.62523 117.74554 22840 ft 489 kts 272°
2026-05-06 11:33 31.62132 117.70581 23237 ft 491 kts 272°
2026-05-06 11:33 31.61738 117.66587 23630 ft 494 kts 272°
2026-05-06 11:33 31.61346 117.62578 24000 ft 495 kts 273°
2026-05-06 11:34 31.61447 117.58629 24292 ft 475 kts 291°
2026-05-06 11:34 31.62451 117.55028 24690 ft 456 kts 306°
2026-05-06 11:34 31.64069 117.51916 25101 ft 441 kts 316°
2026-05-06 11:34 31.65895 117.49042 25584 ft 438 kts 317°
2026-05-06 11:35 31.67715 117.46172 26064 ft 438 kts 316°
2026-05-06 11:35 31.69514 117.43293 26519 ft 437 kts 316°
2026-05-06 11:35 31.71214 117.40529 26945 ft 437 kts 316°
2026-05-06 11:35 31.72982 117.37630 27403 ft 436 kts 316°
2026-05-06 11:36 31.74749 117.34742 27859 ft 433 kts 317°
2026-05-06 11:36 31.76831 117.32332 28246 ft 410 kts 335°
2026-05-06 11:36 31.79306 117.30809 28732 ft 395 kts 346°
2026-05-06 11:36 31.81902 117.29947 29174 ft 383 kts 357°
2026-05-06 11:37 31.84539 117.29701 29573 ft 379 kts
2026-05-06 11:37 31.86981 117.29608 29938 ft 378 kts
2026-05-06 11:37 31.89608 117.29520 30345 ft 377 kts
2026-05-06 11:37 31.92227 117.29413 30760 ft 376 kts
2026-05-06 11:38 31.94839 117.29285 31145 ft 376 kts
2026-05-06 11:38 31.97449 117.29148 31518 ft 375 kts
2026-05-06 11:38 32.00041 117.29021 31882 ft 374 kts
2026-05-06 11:38 32.02668 117.28922 30890 ft 381 kts 352°
2026-05-06 11:39 32.05207 117.28382 31159 ft 374 kts 333°
2026-05-06 11:39 32.07452 117.26900 31417 ft 369 kts 316°
2026-05-06 11:39 32.09249 117.24754 31631 ft 370 kts 307°
2026-05-06 11:40 32.12619 117.19973 31799 ft 389 kts 306°
2026-05-06 11:40 32.16142 117.14919 31847 ft 409 kts 306°
2026-05-06 11:40 32.17982 117.12301 31846 ft 420 kts 306°
2026-05-06 11:41 32.19874 117.09624 31848 ft 429 kts 307°
2026-05-06 11:41 32.23781 117.04118 31843 ft 445 kts 307°
2026-05-06 11:42 32.27811 116.98444 31846 ft 455 kts 307°
2026-05-06 11:42 32.31895 116.92690 31921 ft 457 kts 307°
2026-05-06 11:43 32.35971 116.86933 31920 ft 456 kts 307°
2026-05-06 11:43 32.40029 116.81192 31923 ft 454 kts 307°
2026-05-06 11:44 32.46094 116.72588 31920 ft 453 kts 307°
2026-05-06 11:44 32.50133 116.66849 31920 ft 453 kts 307°
2026-05-06 11:45 32.54172 116.61101 31928 ft 454 kts 306°
2026-05-06 11:45 32.58218 116.55333 31927 ft 455 kts 306°
2026-05-06 11:46 32.62268 116.49551 31917 ft 456 kts 306°
2026-05-06 11:46 32.66320 116.43757 31910 ft 456 kts 306°
2026-05-06 11:47 32.70368 116.37959 31912 ft 456 kts 306°
2026-05-06 11:47 32.74389 116.32191 31915 ft 456 kts 306°
2026-05-06 11:48 32.78437 116.26374 31909 ft 456 kts 306°
2026-05-06 11:48 32.82477 116.20563 31909 ft 456 kts 306°
2026-05-06 11:49 32.86119 116.14448 31915 ft 451 kts 296°
2026-05-06 11:49 32.89089 116.07884 31929 ft 451 kts 295°
2026-05-06 11:50 32.92068 116.01313 31908 ft 451 kts 296°
2026-05-06 11:50 32.95074 115.94748 31905 ft 452 kts 296°
2026-05-06 11:51 32.98086 115.88184 31899 ft 452 kts 296°
2026-05-06 11:51 33.01092 115.81619 31900 ft 452 kts 296°
2026-05-06 11:52 33.04096 115.75044 31895 ft 451 kts 296°
2026-05-06 11:52 33.07095 115.68469 31895 ft 451 kts 296°
2026-05-06 11:53 33.08366 115.65069 31883 ft 448 kts 283°
2026-05-06 11:53 33.08729 115.62656 31916 ft 446 kts 274°
2026-05-06 11:53 33.08629 115.58967 31900 ft 447 kts 261°
2026-05-06 11:53 33.07813 115.55391 31904 ft 449 kts 249°
2026-05-06 11:54 33.06326 115.52109 31906 ft 453 kts 238°
2026-05-06 11:54 33.04262 115.49252 31891 ft 460 kts 224°
2026-05-06 11:54 32.99577 115.44181 31898 ft 450 kts 242°
2026-05-06 11:55 32.98475 115.40739 31891 ft 445 kts 262°
2026-05-06 11:55 32.98492 115.37076 31899 ft 446 kts 281°
2026-05-06 11:55 32.99619 115.33635 31890 ft 452 kts 300°
2026-05-06 11:55 33.01653 115.30754 31917 ft 457 kts 309°
2026-05-06 11:56 33.03395 115.27644 31895 ft 450 kts 291°
2026-05-06 11:56 33.04440 115.24193 31887 ft 449 kts 286°
2026-05-06 11:56 33.06332 115.17100 31881 ft 449 kts 287°
2026-05-06 11:57 33.08402 115.10087 31886 ft 448 kts 288°
2026-05-06 11:57 33.10601 115.03125 31891 ft 448 kts 289°
2026-05-06 11:58 33.12824 114.96172 31891 ft 449 kts 289°
2026-05-06 11:58 33.15040 114.89204 31909 ft 449 kts 289°
2026-05-06 11:59 33.17247 114.82230 31899 ft 449 kts 289°
2026-05-06 11:59 33.19451 114.75249 31897 ft 449 kts 289°
2026-05-06 12:00 33.21644 114.68265 31898 ft 449 kts 288°
2026-05-06 12:00 33.23808 114.61267 31896 ft 449 kts 288°
2026-05-06 12:01 33.25967 114.54268 31894 ft 449 kts 288°
2026-05-06 12:01 33.28126 114.47268 31893 ft 449 kts 288°
2026-05-06 12:02 33.30309 114.40278 31896 ft 449 kts 289°
2026-05-06 12:02 33.32531 114.33294 31894 ft 450 kts 289°
2026-05-06 12:03 33.34745 114.26298 31897 ft 450 kts 289°
2026-05-06 12:03 33.37265 114.19445 31890 ft 453 kts 298°
2026-05-06 12:04 33.40979 114.13375 31894 ft 456 kts 304°
2026-05-06 12:04 33.44874 114.07382 31893 ft 456 kts 304°
2026-05-06 12:05 33.48742 114.01346 31890 ft 457 kts 304°
2026-05-06 12:05 33.52589 113.95287 31895 ft 457 kts 304°
2026-05-06 12:06 33.56436 113.89213 31890 ft 457 kts 304°
2026-05-06 12:06 33.60282 113.83132 31901 ft 457 kts 304°
2026-05-06 12:07 33.64123 113.77052 31898 ft 456 kts 304°
2026-05-06 12:07 33.67055 113.70434 31907 ft 448 kts 285°
2026-05-06 12:08 33.67967 113.63087 31900 ft 446 kts 268°
2026-05-06 12:08 33.67773 113.55634 31908 ft 447 kts 268°
2026-05-06 12:09 33.67568 113.48331 31904 ft 447 kts 268°
2026-05-06 12:09 33.67391 113.40861 31915 ft 448 kts 268°
2026-05-06 12:10 33.67228 113.33370 31928 ft 449 kts 268°
2026-05-06 12:10 33.67064 113.25873 31925 ft 450 kts 268°
2026-05-06 12:11 33.66894 113.18366 31936 ft 450 kts 268°
2026-05-06 12:11 33.66719 113.10855 31934 ft 450 kts 268°
2026-05-06 12:12 33.66542 113.03421 31939 ft 447 kts 268°
2026-05-06 12:12 33.66359 112.95969 31954 ft 447 kts 268°
2026-05-06 12:13 33.66171 112.88504 31951 ft 448 kts 268°
2026-05-06 12:13 33.65979 112.81035 31964 ft 448 kts 268°
2026-05-06 12:14 33.65783 112.73575 31955 ft 445 kts 268°
2026-05-06 12:14 33.65584 112.66159 31971 ft 445 kts 268°
2026-05-06 12:15 33.65380 112.58741 31992 ft 444 kts 268°
2026-05-06 12:15 33.65172 112.51327 31987 ft 444 kts 268°
2026-05-06 12:16 33.64872 112.43921 32020 ft 445 kts 266°
2026-05-06 12:16 33.64362 112.36517 31982 ft 446 kts 265°
2026-05-06 12:17 33.63834 112.29104 31998 ft 446 kts 265°
2026-05-06 12:17 33.63328 112.21686 32006 ft 446 kts 265°
2026-05-06 12:18 33.62829 112.14261 32021 ft 447 kts 265°
2026-05-06 12:18 33.62331 112.06861 32011 ft 442 kts 265°
2026-05-06 12:19 33.61831 111.99507 32042 ft 443 kts 265°
2026-05-06 12:19 33.61326 111.92135 32024 ft 444 kts 265°
2026-05-06 12:20 33.60817 111.84770 32036 ft 443 kts 265°
2026-05-06 12:20 33.60307 111.77452 32040 ft 443 kts 265°
2026-05-06 12:21 33.59792 111.70122 32017 ft 440 kts 265°
2026-05-06 12:21 33.59272 111.62802 32026 ft 442 kts 265°
2026-05-06 12:22 33.58748 111.55467 32025 ft 441 kts 265°
2026-05-06 12:22 33.58219 111.48142 32023 ft 440 kts 265°
2026-05-06 12:23 33.57687 111.40824 32023 ft 441 kts 265°
2026-05-06 12:23 33.57148 111.33491 32030 ft 441 kts 265°
2026-05-06 12:24 33.56607 111.26163 32058 ft 442 kts 265°
2026-05-06 12:24 33.56060 111.18819 32029 ft 443 kts 264°
2026-05-06 12:25 33.55507 111.11464 32034 ft 443 kts 264°
2026-05-06 12:25 33.54950 111.04106 32043 ft 444 kts 264°
2026-05-06 12:26 33.54388 110.96732 32060 ft 444 kts 264°
2026-05-06 12:26 33.53821 110.89360 32051 ft 444 kts 264°
2026-05-06 12:27 33.53222 110.81998 32051 ft 444 kts 264°
2026-05-06 12:27 33.52555 110.74656 32058 ft 443 kts 264°
2026-05-06 12:28 33.51888 110.67323 32074 ft 442 kts 264°
2026-05-06 12:28 33.51227 110.59993 32085 ft 442 kts 264°
2026-05-06 12:29 33.50735 110.52651 32070 ft 443 kts 271°
2026-05-06 12:29 33.51622 110.45401 32093 ft 445 kts 284°
2026-05-06 12:30 33.53709 110.38405 32093 ft 446 kts 288°
2026-05-06 12:30 33.55895 110.31443 32095 ft 446 kts 288°
2026-05-06 12:31 33.58049 110.24471 32109 ft 446 kts 288°
2026-05-06 12:31 33.60180 110.17485 32126 ft 446 kts 288°
2026-05-06 12:32 33.62303 110.10490 32111 ft 446 kts 288°
2026-05-06 12:32 33.64422 110.03496 32121 ft 445 kts 288°
2026-05-06 12:33 33.66539 109.96505 32111 ft 447 kts 288°
2026-05-06 12:33 33.68654 109.89484 32125 ft 448 kts 288°
2026-05-06 12:34 33.70765 109.82469 32117 ft 446 kts 288°
2026-05-06 12:34 33.72867 109.75466 32141 ft 446 kts 288°
2026-05-06 12:35 33.74968 109.68450 32138 ft 446 kts 288°
2026-05-06 12:35 33.77066 109.61429 32150 ft 446 kts 288°
2026-05-06 12:36 33.77854 109.57840 32128 ft 444 kts 276°
2026-05-06 12:36 33.77909 109.54141 32152 ft 443 kts 265°
2026-05-06 12:36 33.76372 109.47007 32164 ft 445 kts 247°
2026-05-06 12:37 33.73753 109.40257 32150 ft 445 kts 247°
2026-05-06 12:37 33.71151 109.33526 32152 ft 445 kts 247°
2026-05-06 12:38 33.68568 109.26757 32129 ft 447 kts 247°
2026-05-06 12:38 33.65984 109.19956 32141 ft 449 kts 247°
2026-05-06 12:39 33.63405 109.13170 32139 ft 450 kts 247°
2026-05-06 12:39 33.60809 109.06364 32147 ft 447 kts 248°
2026-05-06 12:40 33.58217 108.99575 32140 ft 448 kts 248°
2026-05-06 12:40 33.55615 108.92777 32145 ft 449 kts 248°
2026-05-06 12:41 33.53016 108.86005 32131 ft 444 kts 247°
2026-05-06 12:41 33.50443 108.79308 32123 ft 444 kts 247°
2026-05-06 12:42 33.47856 108.72582 32135 ft 445 kts 247°
2026-05-06 12:42 33.45564 108.65726 32130 ft 443 kts 261°
2026-05-06 12:43 33.45425 108.62061 32105 ft 441 kts 274°
2026-05-06 12:43 33.45996 108.58450 31360 ft 442 kts 287°
2026-05-06 12:43 33.47294 108.55124 30469 ft 444 kts 301°
2026-05-06 12:43 33.49269 108.52253 29422 ft 451 kts 314°
2026-05-06 12:44 33.50934 108.50669 28630 ft 457 kts 323°
2026-05-06 12:44 33.53779 108.49016 27584 ft 466 kts 338°
2026-05-06 12:44 33.58106 108.48261 26151 ft 479 kts 358°
2026-05-06 12:44 33.60302 108.48538 25568 ft 483 kts
2026-05-06 12:45 33.63478 108.49821 24908 ft 482 kts 21°
2026-05-06 12:45 33.67442 108.52311 23811 ft 479 kts 25°
2026-05-06 12:45 33.72291 108.55411 22340 ft 471 kts 24°
2026-05-06 12:46 33.75196 108.57170 21494 ft 465 kts 24°
2026-05-06 12:46 33.78082 108.58856 20694 ft 457 kts 22°
2026-05-06 12:46 33.80915 108.60528 19912 ft 451 kts 24°
2026-05-06 12:46 33.83692 108.62213 19231 ft 442 kts 25°
2026-05-06 12:47 33.86423 108.63866 18471 ft 436 kts 25°
2026-05-06 12:47 33.89105 108.65487 17640 ft 429 kts 25°
2026-05-06 12:47 33.91737 108.67075 16931 ft 418 kts 25°
2026-05-06 12:47 33.94321 108.68634 16243 ft 410 kts 25°
2026-05-06 12:48 33.96849 108.70153 15553 ft 402 kts 25°
2026-05-06 12:48 33.99323 108.71647 14873 ft 395 kts 26°
2026-05-06 12:48 34.01710 108.73090 14754 ft 373 kts 26°
2026-05-06 12:48 34.03972 108.74457 14591 ft 355 kts 25°
2026-05-06 12:49 34.06129 108.75749 14521 ft 338 kts 25°
2026-05-06 12:49 34.08190 108.76978 14392 ft 324 kts 25°
2026-05-06 12:49 34.10167 108.78156 14271 ft 311 kts 25°
2026-05-06 12:49 34.12072 108.79292 14153 ft 299 kts 25°
2026-05-06 12:50 34.13904 108.80387 14038 ft 289 kts 25°
2026-05-06 12:50 34.15673 108.81444 13928 ft 279 kts 25°
2026-05-06 12:50 34.17380 108.82466 13817 ft 269 kts 25°
2026-05-06 12:50 34.19032 108.83455 13686 ft 260 kts 25°
2026-05-06 12:51 34.20627 108.84410 13585 ft 252 kts 25°
2026-05-06 12:51 34.22212 108.85193 13430 ft 244 kts 10°
2026-05-06 12:51 34.23889 108.85267 13222 ft 240 kts 359°
2026-05-06 12:51 34.25552 108.85164 12952 ft 239 kts 358°
2026-05-06 12:52 34.27205 108.85057 12692 ft 237 kts 358°
2026-05-06 12:52 34.28843 108.84955 12437 ft 236 kts 358°
2026-05-06 12:52 34.30475 108.84857 12215 ft 233 kts 359°
2026-05-06 12:52 34.32060 108.84764 12125 ft 225 kts 359°
2026-05-06 12:53 34.33596 108.84674 12023 ft 218 kts 359°
2026-05-06 12:53 34.35111 108.84609 11937 ft 217 kts
2026-05-06 12:53 34.36513 108.85211 11760 ft 217 kts 33°
2026-05-06 12:53 34.37632 108.86427 11548 ft 218 kts 46°
2026-05-06 12:54 34.38618 108.87818 11311 ft 217 kts 46°
2026-05-06 12:54 34.39610 108.89201 11066 ft 217 kts 46°
2026-05-06 12:54 34.40592 108.90560 10830 ft 217 kts 46°
2026-05-06 12:54 34.41600 108.91949 10594 ft 216 kts 46°
2026-05-06 12:55 34.42592 108.93313 10365 ft 216 kts 46°
2026-05-06 12:55 34.43569 108.94657 10140 ft 215 kts 46°
2026-05-06 12:55 34.44568 108.96030 9912 ft 214 kts 46°
2026-05-06 12:55 34.45539 108.97366 9655 ft 214 kts 46°
2026-05-06 12:56 34.46532 108.98731 9409 ft 213 kts 46°
2026-05-06 12:56 34.47495 109.00054 9186 ft 211 kts 46°
2026-05-06 12:56 34.48463 109.01386 8964 ft 210 kts 46°
2026-05-06 12:56 34.49425 109.02709 8740 ft 209 kts 45°
2026-05-06 12:57 34.50382 109.04025 8520 ft 207 kts 46°
2026-05-06 12:57 34.51331 109.05331 8302 ft 206 kts 46°
2026-05-06 12:57 34.52276 109.06631 8072 ft 205 kts 46°
2026-05-06 12:57 34.53218 109.07929 7849 ft 204 kts 46°
2026-05-06 12:58 34.54308 109.08988 7594 ft 201 kts 19°
2026-05-06 12:58 34.55682 109.09175 7389 ft 201 kts 356°
2026-05-06 12:58 34.57027 109.08680 7157 ft 204 kts 340°
2026-05-06 12:58 34.58328 109.07985 6922 ft 205 kts 340°
2026-05-06 12:59 34.59581 109.07151 6665 ft 211 kts 322°
2026-05-06 12:59 34.60339 109.05603 6448 ft 222 kts 289°
2026-05-06 12:59 34.60331 109.03719 6251 ft 226 kts 263°
2026-05-06 12:59 34.59974 109.01872 5983 ft 223 kts 261°
2026-05-06 13:00 34.59614 109.00062 5757 ft 218 kts 260°
2026-05-06 13:00 34.58986 108.98405 5515 ft 219 kts 231°
2026-05-06 13:00 34.57963 108.97088 5430 ft 212 kts 232°
2026-05-06 13:00 34.57002 108.95696 5172 ft 216 kts 232°
2026-05-06 13:01 34.56028 108.94313 4908 ft 215 kts 231°
2026-05-06 13:01 34.55047 108.92953 4623 ft 213 kts 230°
2026-05-06 13:01 34.54093 108.91642 4343 ft 205 kts 230°
2026-05-06 13:01 34.53162 108.90363 4082 ft 195 kts 230°
2026-05-06 13:02 34.52284 108.89155 3847 ft 189 kts 230°
2026-05-06 13:02 34.51435 108.87986 3611 ft 187 kts 230°
2026-05-06 13:02 34.50585 108.86816 3358 ft 180 kts 231°
2026-05-06 13:02 34.49803 108.85742 3128 ft 159 kts 231°
2026-05-06 13:03 34.49109 108.84786 2916 ft 143 kts 231°
2026-05-06 13:03 34.48474 108.83911 2745 ft 135 kts 230°
2026-05-06 13:03 34.47853 108.83055 2574 ft 136 kts 230°
2026-05-06 13:03 34.47227 108.82193 2399 ft 137 kts 230°
2026-05-06 13:04 34.46595 108.81322 2211 ft 138 kts 230°
2026-05-06 13:04 34.45961 108.80448 2040 ft 139 kts 229°
2026-05-06 13:04 34.45308 108.79578 1852 ft 140 kts 227°
2026-05-06 13:04 34.44663 108.78677 1687 ft 143 kts 230°
2026-05-06 13:05 34.44011 108.77773 1568 ft 142 kts 231°
2026-05-06 13:05 34.43393 108.76892 1521 ft 128 kts 231°
2026-05-06 13:05 34.43008 108.76363 1521 ft 18 kts 236°
2026-05-06 13:05 34.42952 108.76246 1521 ft 10 kts 248°
2026-05-06 13:06 34.42947 108.76216 1521 ft 7 kts 270°
2026-05-06 13:06 34.42948 108.76123 1521 ft 15 kts 270°
2026-05-06 13:06 34.42948 108.76056 1520 ft 4 kts 296°
2026-05-06 13:06 34.42986 108.76015 1518 ft 11 kts 321°
2026-05-06 13:07 34.43061 108.75941 1520 ft 13 kts 321°
2026-05-06 13:07 34.43139 108.75860 1520 ft 6 kts 317°
2026-05-06 13:07 34.43184 108.75837 1520 ft 8 kts
2026-05-06 13:07 34.43215 108.75847 1520 ft 6 kts 14°
2026-05-06 13:08 34.43248 108.75857 1520 ft 4 kts 13°
2026-05-06 13:08 34.43266 108.75861 1516 ft 0 kts 12°